Theta_e
337 340 335 330 327 329 333 332 329 329 330 330 329 328 331 330 326 328 332 329 326 330 332 328 326 326 325 323 321 321 322 322 321 321 321 321 321 321 321 321 321 321 320 321 321 320 320 320 318 319 321 321 321 320 319 318 319 320 321 321 322 322 321 322 321 320 318 318 317 317 316 315 313 312 311 311 311 312 312 312 311 311 311 311 312 313 313
335 342 336 331 329 327 329 333 334 336 335 333 333 335 335 329 329 334 334 329 329 329 328 326 322 320 321 321 321 322 321 321 320 321 320 321 321 321 321 321 320 320 320 321 321 320 320 320 318 318 319 319 318 317 316 316 318 320 321 321 322 322 321 321 320 318 317 317 317 316 315 313 312 312 311 311 311 312 312 312 311 311 311 311 312 312 312
334 345 339 332 331 327 326 330 335 336 335 333 331 333 332 327 328 330 326 324 328 327 321 319 320 320 321 320 320 321 321 321 321 321 320 321 321 321 321 321 321 321 320 321 321 321 321 320 319 318 317 317 316 315 316 317 318 319 320 321 321 321 321 320 319 318 317 317 317 315 314 313 313 312 311 311 311 311 311 311 311 311 311 311 311 311 312
333 342 335 331 331 327 326 330 334 335 335 334 333 333 333 330 329 326 319 321 331 327 316 315 319 319 319 319 320 320 320 320 321 320 321 321 321 321 321 321 321 321 321 321 321 321 321 320 318 317 316 316 315 315 317 318 318 318 319 320 321 321 320 319 318 318 318 317 316 315 314 314 313 312 311 311 311 311 311 311 310 309 310 311 310 310 310
334 339 335 332 328 323 329 337 336 334 335 333 330 329 330 330 330 327 322 326 334 325 316 321 325 320 318 319 319 320 320 320 321 321 321 321 321 321 321 321 321 321 321 321 321 321 321 320 319 317 316 316 316 316 316 315 315 316 317 318 319 319 319 318 318 317 317 316 316 315 315 314 313 312 311 311 311 311 310 310 309 308 308 309 309 309 309
336 342 338 332 326 325 335 344 339 335 335 333 329 332 335 330 328 327 327 331 332 323 321 327 328 322 320 319 319 319 320 320 321 321 321 321 321 321 321 321 321 321 321 321 321 320 320 320 319 319 318 316 317 317 316 315 315 316 316 317 317 318 317 317 316 316 315 315 315 315 315 314 313 312 312 311 311 310 310 309 308 308 308 309 308 308 309
335 340 333 325 327 333 339 339 334 332 334 333 331 335 338 333 328 327 326 329 329 323 321 323 322 321 321 320 319 320 320 320 321 321 321 322 321 321 321 320 321 320 320 320 320 320 319 319 319 319 318 318 318 318 317 317 316 315 315 315 315 315 315 314 314 314 314 314 314 314 313 312 312 312 311 311 311 310 309 309 309 308 308 309 309 308 309
330 329 324 324 330 335 335 330 325 324 327 329 325 327 334 335 330 327 327 326 322 319 319 321 322 321 321 319 320 321 320 321 321 321 321 321 321 321 320 320 320 320 320 319 319 319 318 318 318 318 319 319 319 318 319 318 316 316 316 316 316 315 314 313 313 312 312 312 312 312 312 312 312 312 312 311 311 310 309 309 309 309 308 309 309 308 308
327 327 330 331 329 327 330 329 325 324 327 330 327 326 334 335 324 320 326 327 320 317 321 322 321 319 320 322 322 320 320 322 321 321 321 320 319 320 319 320 320 320 320 319 319 319 318 318 319 319 318 318 318 319 319 319 318 317 317 317 317 316 315 314 313 313 312 312 312 312 312 312 312 312 311 311 310 310 309 309 308 308 308 308 308 308 308
327 326 329 330 325 327 338 340 332 325 322 324 324 323 329 330 319 317 324 326 320 318 319 319 319 318 320 327 327 321 320 321 320 321 320 319 318 320 319 320 320 319 320 320 319 319 318 318 319 318 318 318 318 319 319 319 319 319 318 318 317 317 317 316 315 314 313 312 311 312 312 312 312 311 311 311 310 309 309 308 308 308 308 308 308 308 308
328 325 326 328 325 329 342 344 332 322 317 319 320 320 328 329 319 317 321 320 318 319 318 318 320 319 323 330 329 321 320 322 321 320 320 318 318 319 319 319 319 319 319 319 319 319 318 318 319 318 318 318 318 319 319 319 319 320 319 319 318 318 317 317 317 317 316 314 312 312 312 312 312 311 311 311 310 309 308 308 307 307 308 308 308 308 308
329 329 330 331 329 329 336 337 329 319 317 319 319 323 333 334 321 319 321 319 319 320 318 318 320 322 325 328 324 319 321 321 320 320 320 318 318 319 318 319 319 318 319 319 319 318 318 318 319 318 318 319 319 318 319 319 319 319 319 319 319 318 318 317 317 317 317 316 314 312 312 312 312 312 311 311 310 309 309 308 308 307 308 308 308 307 306
330 328 327 328 331 336 334 330 324 318 316 319 321 325 332 329 322 321 320 319 319 319 318 319 321 321 321 321 319 320 321 320 319 320 320 318 318 318 318 318 318 318 318 318 318 318 318 318 318 318 319 318 318 319 318 319 319 319 319 319 319 319 319 318 318 318 317 317 316 314 313 312 312 311 311 311 311 311 309 308 307 307 307 307 307 305 304
328 328 328 326 329 333 328 322 321 317 318 325 327 326 325 322 320 321 319 318 320 320 319 320 320 319 319 319 320 321 319 319 320 319 319 318 318 318 318 318 317 317 317 318 318 318 318 318 318 319 319 318 319 318 318 319 319 319 319 319 319 319 319 319 318 318 318 317 317 315 313 312 312 311 311 311 311 311 308 305 305 305 305 306 305 305 305
327 325 325 326 330 330 323 319 320 319 323 329 328 323 322 321 321 321 320 320 321 320 320 321 320 320 320 319 320 320 320 320 320 319 319 319 318 318 317 317 317 317 317 318 317 318 318 318 318 318 317 318 318 318 318 318 318 318 319 319 319 319 319 319 318 318 318 318 317 316 314 313 312 312 311 311 311 310 307 303 303 305 306 306 306 306 306
330 328 326 326 329 328 323 320 321 321 323 325 322 321 324 323 321 321 322 322 321 320 320 321 320 320 320 319 320 321 320 320 319 319 319 319 318 319 318 317 317 317 317 317 318 318 318 318 317 316 316 317 318 319 319 319 318 318 319 319 320 320 319 319 318 318 318 318 317 317 316 315 313 313 312 311 311 310 307 304 305 306 306 306 306 306 307
331 331 330 325 321 321 321 321 322 322 321 321 320 321 323 322 322 321 320 320 321 320 320 321 320 320 320 320 320 320 320 321 320 319 320 319 319 319 317 317 317 317 317 318 318 317 318 317 316 315 315 317 318 319 319 318 318 318 318 318 319 320 320 320 319 318 318 318 318 317 316 316 314 314 313 312 311 310 308 306 305 306 306 306 307 308 308
327 323 323 322 321 322 322 322 322 322 321 321 320 318 319 321 320 320 319 319 320 319 320 320 320 321 321 320 321 321 321 321 320 320 320 319 319 318 317 317 317 317 317 318 317 317 317 316 315 315 316 318 318 318 319 319 318 318 318 318 319 319 320 320 319 319 318 318 318 318 317 316 316 315 314 313 312 311 309 307 306 306 306 306 306 308 309
327 329 330 325 322 324 323 321 322 322 321 320 319 318 320 320 320 320 318 318 318 319 320 320 320 320 321 321 321 321 321 321 321 320 320 319 318 318 317 317 317 317 317 317 317 317 317 316 315 315 317 319 319 319 319 318 318 318 318 318 319 319 319 320 320 319 319 318 318 317 317 317 316 315 315 314 312 312 310 308 306 306 306 306 306 306 308
328 335 332 324 322 324 323 322 323 323 321 321 320 319 321 320 320 320 318 318 319 321 320 320 320 320 320 320 320 320 320 321 321 320 320 319 319 319 318 317 317 317 317 317 317 317 318 317 315 316 318 319 318 318 318 318 319 319 319 319 319 319 319 319 319 319 319 318 318 317 317 317 316 316 315 314 313 313 311 309 307 307 307 307 306 306 306
328 328 323 319 321 323 322 322 323 322 321 321 320 320 321 320 320 320 318 318 319 320 320 320 320 320 320 320 319 319 319 320 321 321 321 320 320 319 318 318 317 317 317 317 317 318 318 317 315 316 318 318 318 318 318 318 319 319 318 318 319 319 319 319 319 319 319 318 318 317 317 317 317 316 316 315 314 313 312 310 309 307 307 307 307 307 306
330 327 322 320 322 323 321 319 320 319 318 318 318 318 319 320 320 320 319 319 319 320 319 320 319 319 320 319 319 319 320 320 320 320 320 320 320 319 318 318 317 318 318 318 318 318 317 316 316 317 318 318 318 318 318 319 319 318 318 319 318 318 318 318 318 319 319 319 319 318 317 317 316 316 316 316 315 314 313 311 310 309 308 307 307 307 307
330 325 321 319 321 322 320 318 318 318 317 317 317 317 317 317 317 318 319 319 319 319 319 319 318 318 318 318 319 319 320 319 319 319 319 319 320 319 319 318 318 318 318 318 318 318 317 316 316 318 318 318 318 318 318 318 318 318 318 318 318 318 318 318 318 319 318 319 318 318 318 317 317 316 316 316 315 314 313 312 311 310 309 308 307 307 307
323 320 321 320 320 320 320 319 319 319 318 318 318 318 318 317 316 316 316 316 316 317 318 317 318 318 318 317 317 318 318 319 319 318 318 318 319 319 319 319 318 318 318 318 318 318 317 316 316 318 319 318 317 316 317 317 318 318 318 318 318 318 318 318 318 318 319 319 319 318 318 317 316 316 316 315 315 315 314 313 312 311 310 309 308 308 308
320 320 321 320 320 320 320 319 319 319 318 319 319 319 318 318 317 316 316 315 315 316 316 316 316 317 317 317 316 316 317 317 317 318 318 318 319 319 319 318 318 318 318 318 318 317 316 316 317 318 318 317 316 316 316 317 318 318 318 318 318 318 318 318 318 318 318 319 318 318 318 318 317 317 316 316 316 315 314 313 313 311 311 310 309 308 307
319 319 320 320 320 320 320 319 319 319 319 319 319 319 319 318 317 316 315 315 315 315 315 315 315 315 315 315 315 315 315 315 315 317 318 319 319 319 319 318 318 318 318 318 317 317 316 316 317 318 317 316 315 316 316 316 317 317 317 317 316 317 317 317 318 318 318 318 318 318 318 318 317 317 317 316 316 315 314 314 313 312 312 311 310 309 308
320 320 320 320 320 319 319 320 319 319 318 318 318 318 318 318 317 316 315 315 315 315 315 315 314 315 315 315 315 316 316 315 315 315 316 318 319 319 319 319 318 318 318 318 317 317 317 317 317 317 316 315 315 316 317 317 317 317 317 316 316 316 315 315 316 318 318 319 318 318 318 318 318 317 317 316 316 315 314 314 313 313 313 312 310 309 309
320 320 320 319 319 319 319 319 318 318 318 318 317 318 318 317 316 315 315 315 315 315 315 315 314 314 315 316 316 317 317 317 316 316 315 316 318 319 320 319 319 319 318 318 317 317 317 317 318 317 316 316 317 317 316 316 316 316 316 316 315 315 314 313 315 317 318 318 318 318 318 318 318 317 317 317 316 315 315 315 314 314 314 313 311 309 309
319 319 320 320 319 319 319 318 318 318 317 317 316 316 316 315 315 315 315 315 314 314 315 314 314 313 313 315 316 317 317 316 316 317 316 316 317 319 319 319 319 319 318 318 317 317 317 318 318 316 316 317 317 316 315 315 315 315 315 315 314 313 312 311 312 314 316 317 317 317 317 317 317 317 316 316 316 316 315 315 315 314 314 313 311 310 309
319 318 319 319 319 319 319 318 318 317 317 316 316 315 315 315 315 315 315 315 315 315 315 315 314 314 313 314 314 315 315 315 315 315 316 316 317 318 319 319 319 318 318 318 318 317 317 317 317 317 316 316 316 316 316 316 315 314 315 314 314 313 310 309 310 313 315 316 316 317 317 317 317 316 317 316 316 316 316 315 315 314 314 314 312 311 309
320 319 319 320 320 319 319 318 317 317 316 315 315 315 315 315 315 315 315 314 315 315 314 314 314 314 314 313 314 313 314 314 313 314 315 316 317 318 319 319 318 318 318 317 317 317 317 317 316 316 316 317 317 316 316 315 314 315 315 315 315 314 312 310 311 314 315 315 316 316 315 315 315 316 316 316 316 316 316 316 315 314 314 314 313 311 310
320 320 320 320 320 319 319 318 317 316 315 315 316 315 315 315 315 315 315 314 315 315 315 314 314 314 314 314 314 314 314 313 313 314 315 315 316 317 318 319 318 318 318 317 317 316 316 315 316 316 316 317 317 317 316 316 315 315 315 315 315 315 314 311 311 313 314 314 313 313 313 314 315 315 315 316 316 316 316 316 315 315 314 314 313 312 311
318 319 319 319 319 319 319 318 317 316 315 315 315 315 315 315 315 315 315 315 315 315 314 315 314 314 314 315 314 314 314 314 313 314 315 315 316 317 318 318 318 318 318 318 317 316 315 315 316 317 316 317 317 317 316 316 315 315 315 315 315 315 314 312 312 312 313 312 311 310 310 312 313 315 315 315 315 316 316 315 316 315 315 314 314 313 313
316 317 317 317 317 318 317 317 316 316 316 316 315 315 315 315 315 314 315 315 315 315 315 314 315 314 314 314 314 314 314 314 314 314 315 315 316 317 318 318 318 318 318 318 317 316 316 316 317 317 316 316 316 316 316 316 316 316 315 315 315 315 314 313 312 313 313 312 311 309 308 309 311 313 314 314 315 315 315 315 315 315 315 315 314 314 313
316 316 316 316 316 316 316 316 316 316 315 315 315 314 314 315 315 315 316 315 315 315 315 314 315 314 314 314 314 314 314 314 314 314 315 315 316 317 317 318 318 318 318 317 317 316 316 316 316 316 316 316 316 316 316 316 316 315 315 315 316 315 313 312 313 313 313 313 312 310 309 309 310 311 313 314 314 315 315 315 315 315 315 315 314 314 313
316 316 316 316 316 316 315 315 315 314 314 314 314 314 315 315 315 315 315 314 314 315 315 315 314 314 314 314 314 314 314 314 314 315 315 315 316 317 318 318 318 318 318 318 317 317 316 316 316 316 316 316 316 316 316 316 315 315 315 315 315 314 313 312 313 313 313 313 313 311 310 308 309 310 312 313 314 314 314 314 315 315 314 315 314 314 313
315 316 316 316 315 315 314 314 314 314 314 314 314 314 314 314 313 313 314 314 314 314 315 314 314 314 314 315 314 314 314 314 314 315 315 315 316 318 318 318 318 318 318 317 317 317 316 316 316 316 316 316 316 315 315 315 315 315 315 315 314 314 313 313 313 313 313 313 313 312 310 309 309 310 312 313 314 314 314 314 314 314 314 314 314 314 314
315 316 316 315 314 314 314 314 313 313 313 313 313 312 312 312 312 312 313 313 313 314 314 314 315 315 315 315 315 315 315 314 314 314 315 316 316 318 319 318 318 318 318 317 317 317 316 316 315 315 315 315 315 315 315 314 314 314 314 314 314 314 314 314 313 314 314 314 313 312 310 309 309 310 312 313 313 313 313 313 313 313 313 313 313 313 313
316 315 314 314 313 314 314 313 313 312 312 312 312 312 312 312 312 312 312 312 312 312 312 313 314 314 315 315 315 315 315 315 315 315 316 316 317 318 319 318 318 318 317 317 317 316 316 315 315 315 315 315 315 314 314 313 313 313 313 314 314 314 314 314 314 314 314 313 313 311 310 309 310 311 312 313 313 313 313 313 313 313 313 313 313 313 313
313 313 313 313 313 313 312 312 312 312 312 311 311 311 311 311 311 311 311 311 311 311 311 311 312 312 313 314 314 314 315 315 315 315 316 317 318 318 318 318 317 317 317 317 316 316 315 315 315 315 315 315 315 314 314 314 313 314 314 314 314 314 314 314 314 314 313 313 312 310 309 310 311 312 312 313 313 313 312 312 312 312 312 313 313 313 312
311 311 311 312 312 312 312 311 311 311 311 311 311 311 311 311 311 311 311 311 312 312 312 312 312 312 312 313 313 313 314 314 314 315 316 317 318 318 318 318 317 317 317 316 315 315 315 315 314 314 315 314 314 314 314 314 313 313 313 313 313 314 314 314 314 313 313 312 310 309 309 311 312 312 312 312 312 312 311 311 311 311 312 312 313 313 312
310 310 310 310 310 311 311 311 311 311 311 310 311 311 311 311 311 312 312 312 312 312 312 313 313 312 312 312 313 313 314 314 314 314 315 315 316 317 317 317 317 317 316 315 315 315 315 314 314 314 314 314 314 314 313 313 312 312 312 313 314 314 314 314 313 312 311 310 309 309 310 312 312 312 312 312 312 311 311 311 311 311 312 312 312 312 312
310 310 310 310 310 310 310 310 310 310 310 310 310 310 310 311 311 311 312 311 312 312 312 312 312 312 313 312 312 313 313 314 314 314 314 314 315 316 317 317 316 316 315 314 314 314 314 314 314 314 313 313 313 313 313 313 313 313 313 313 313 313 312 311 310 309 309 308 309 310 311 312 312 312 312 312 312 311 310 310 310 311 311 312 312 311 312
310 310 310 311 310 310 310 309 308 307 308 307 308 308 309 310 310 310 311 311 311 311 311 312 312 312 312 312 312 312 312 312 313 314 314 314 315 316 317 316 316 315 314 314 314 314 314 314 314 313 313 313 313 313 313 313 313 312 312 311 310 309 309 308 308 308 307 308 308 310 312 312 312 312 312 312 312 311 310 310 309 310 310 311 312 312 312
311 310 310 310 310 310 309 308 308 308 308 307 306 307 308 309 309 309 309 310 311 311 311 312 312 312 312 312 312 312 312 312 312 313 314 314 315 316 316 315 315 315 314 314 314 314 314 314 313 314 314 314 313 313 313 312 311 310 309 308 308 307 307 307 307 307 307 308 309 310 312 312 312 312 312 311 311 311 310 309 308 308 309 310 311 311 311
311 310 310 310 310 309 309 309 309 309 309 308 307 307 308 308 308 309 309 310 310 310 311 311 312 312 312 312 312 312 312 312 313 314 314 315 315 315 315 314 315 314 314 314 314 313 314 313 313 313 314 313 313 312 311 310 309 308 307 306 307 307 307 307 307 307 308 309 310 311 312 312 311 311 311 311 311 310 310 309 308 308 308 309 309 309 310
310 310 310 309 309 309 309 309 309 309 309 309 309 309 309 308 308 308 309 309 310 310 311 311 311 311 312 311 311 312 312 313 314 314 315 315 315 315 315 315 314 314 314 314 314 314 313 313 313 313 313 312 312 311 310 308 307 306 306 307 308 308 308 307 307 307 308 310 311 311 312 311 311 311 311 311 311 310 309 309 309 308 308 307 308 307 307
309 309 309 309 309 309 309 309 309 310 310 310 309 309 308 308 308 308 309 310 311 312 312 312 312 312 312 312 312 312 312 313 313 314 314 314 314 315 314 314 314 313 314 314 314 313 313 313 313 312 312 311 311 310 309 308 307 307 308 309 309 309 309 308 307 307 309 310 311 311 311 311 311 311 311 310 310 310 309 309 309 308 308 307 307 306 306
309 308 309 309 309 309 309 309 309 309 309 309 308 308 308 308 308 309 310 312 312 313 312 312 312 312 312 312 313 313 313 313 313 313 314 314 314 314 314 314 314 313 313 313 312 311 311 312 313 312 311 311 310 309 309 308 308 309 309 309 309 310 309 308 308 308 308 309 310 310 311 311 311 310 310 310 310 310 309 309 309 308 307 307 306 305 305
308 308 308 308 308 309 309 309 309 308 307 307 307 308 308 308 309 310 311 311 312 312 311 311 312 312 312 312 312 312 312 311 312 313 313 313 313 313 313 313 313 313 313 312 310 309 310 311 312 311 311 310 310 309 309 309 309 309 309 310 309 309 309 309 308 308 308 308 308 309 310 310 310 310 310 310 310 309 309 309 308 307 307 306 305 305 305
307 307 307 308 308 308 308 308 308 307 307 307 308 308 308 309 309 309 309 310 310 311 311 311 311 311 311 311 311 312 311 311 311 311 312 312 312 313 313 312 312 312 312 310 310 310 310 311 311 310 310 310 309 309 309 309 310 310 310 309 309 309 309 309 309 309 309 308 308 308 309 310 310 310 310 309 309 309 309 308 308 307 306 306 305 305 305
306 306 306 307 307 307 307 307 307 307 307 307 307 307 307 308 309 309 308 308 309 310 311 310 309 308 308 309 310 311 312 311 311 311 311 311 311 312 312 312 311 311 311 310 310 311 311 311 311 310 310 310 309 309 309 309 310 310 310 309 309 309 309 309 309 309 309 309 308 308 308 309 309 309 309 309 308 308 308 308 307 307 306 305 304 304 305
Wind_Speed
5 4 6 5 5 4 5 6 6 5 4 6 6 5 6 7 5 5 7 5 5 7 6 7 8 7 7 7 4 6 9 7 5 5 5 6 7 6 5 3 2 4 4 4 4 4 4 6 6 5 5 6 8 10 10 11 12 10 7 9 12 11 11 12 11 10 10 12 13 15 15 14 12 13 15 14 11 12 13 12 12 14 15 15 15 14 14
6 5 4 5 5 4 3 5 6 6 7 8 7 6 6 7 5 6 6 6 7 7 7 8 6 4 7 7 7 8 9 7 6 6 6 5 5 6 5 3 2 3 4 4 5 5 5 7 7 7 7 8 10 11 11 10 9 7 5 6 9 10 10 10 9 8 10 12 13 13 13 13 12 13 13 11 10 13 14 13 13 14 15 16 15 15 15
6 6 4 4 5 5 4 5 4 1 4 4 3 3 4 4 3 3 3 2 6 6 9 9 5 5 10 10 9 9 9 9 8 8 6 4 4 5 4 3 3 4 4 5 6 5 5 7 7 7 8 9 9 10 11 11 9 6 4 5 8 9 8 8 8 8 11 12 13 13 13 13 13 13 13 12 13 15 14 14 15 16 17 16 15 15 14
5 5 6 6 3 2 2 7 6 2 5 3 3 4 5 5 5 3 2 1 5 6 8 8 6 9 10 7 9 11 9 9 10 9 7 5 4 5 4 4 4 4 5 6 5 5 7 7 7 6 7 8 8 9 10 10 9 8 6 5 6 8 7 8 9 10 11 13 14 15 15 15 16 16 16 15 15 14 14 14 17 19 18 16 15 16 16
5 6 6 5 2 4 4 7 7 8 7 3 2 3 4 6 7 6 4 5 6 5 4 3 5 8 8 7 9 10 9 10 10 9 8 6 5 5 4 5 5 4 5 5 5 7 9 9 8 8 8 7 7 9 8 8 8 8 7 5 6 8 9 9 10 11 13 15 16 16 17 18 18 18 17 15 15 15 16 18 20 19 14 13 13 14 14
4 7 6 5 3 1 5 7 6 9 9 8 7 5 6 8 6 4 5 5 5 4 4 5 7 7 7 7 8 7 7 9 12 11 8 6 8 8 6 5 6 6 7 7 8 9 11 10 10 11 10 8 8 9 9 8 7 7 7 8 9 10 11 12 13 14 15 16 16 16 18 19 19 18 17 16 17 17 18 20 19 15 10 9 11 11 11
2 4 6 4 2 6 7 6 2 5 7 8 8 6 6 9 8 6 5 5 7 10 12 13 12 9 7 7 6 4 5 9 13 12 9 8 9 9 7 7 8 9 10 9 9 10 9 9 10 11 11 10 10 10 10 9 9 8 8 9 10 11 12 13 14 15 15 15 15 17 18 19 18 17 17 17 18 19 19 18 16 13 11 10 11 11 10
1 1 3 2 6 7 7 6 3 3 4 5 3 4 7 8 10 9 8 9 12 15 16 16 13 8 8 6 3 3 4 9 12 11 9 8 8 9 9 9 10 11 11 9 8 8 7 8 8 9 10 10 11 11 11 11 10 10 10 11 11 10 10 11 12 13 15 15 16 17 18 17 16 17 17 18 19 19 18 16 14 14 12 11 10 10 9
1 1 2 3 4 7 6 4 2 4 3 4 6 2 7 8 10 12 9 8 12 15 15 12 8 10 8 3 2 5 8 9 10 9 8 6 6 9 10 10 10 10 10 10 8 8 7 7 8 8 8 9 10 11 11 11 11 11 12 13 13 13 12 12 12 13 14 15 15 16 17 16 16 17 18 19 19 18 17 16 15 14 12 11 10 10 9
2 2 2 3 3 5 6 7 8 6 6 7 8 4 5 7 10 17 14 9 11 14 12 11 12 9 2 3 4 10 11 9 9 9 8 6 6 9 10 11 10 10 10 11 9 8 8 7 8 8 8 9 10 11 12 13 13 13 13 14 15 15 15 14 14 14 15 16 15 16 17 17 17 17 18 19 19 18 18 17 14 13 12 12 11 10 9
2 3 1 3 3 5 7 8 9 5 7 10 9 4 6 7 8 15 17 13 14 14 15 15 11 5 1 5 8 12 13 10 10 10 8 6 6 8 10 10 10 10 10 10 10 9 9 8 8 8 9 9 10 11 12 14 15 16 16 15 15 16 16 17 17 16 16 16 15 15 16 17 17 18 18 19 19 19 18 17 16 14 13 12 12 12 12
2 3 3 4 4 6 8 8 6 5 11 12 8 4 7 6 4 11 18 19 16 15 17 15 9 6 6 8 9 11 12 10 10 11 9 5 6 8 8 9 9 9 9 10 10 10 9 8 8 8 9 9 11 13 13 13 15 17 17 17 16 15 17 18 18 18 17 16 16 15 15 16 17 18 19 19 19 18 18 18 18 16 14 14 15 15 16
4 4 4 4 4 6 8 8 9 14 11 6 3 4 8 7 5 8 16 19 17 16 16 14 10 9 11 10 8 9 11 10 12 13 10 7 7 8 9 9 9 8 8 9 10 9 8 7 8 8 9 10 12 13 13 14 16 16 16 16 16 16 17 18 19 20 19 18 17 16 15 16 17 18 19 19 18 18 19 18 18 17 15 15 16 15 14
3 4 3 3 5 7 8 8 14 16 8 1 6 6 4 6 7 9 13 16 14 13 14 13 12 12 12 10 9 9 11 12 13 13 12 9 7 8 10 10 9 9 9 9 9 9 8 7 8 8 10 12 14 14 15 16 16 15 15 16 16 17 17 18 19 20 20 19 18 17 16 17 17 18 19 19 18 19 19 16 15 14 11 10 11 12 10
3 2 2 1 6 7 9 12 9 7 6 5 7 8 7 8 9 9 10 12 11 11 13 13 14 14 12 12 12 11 12 13 13 14 14 11 9 10 10 11 10 10 10 10 10 10 8 8 9 10 12 14 15 14 15 15 15 15 15 15 17 17 18 19 20 20 20 20 19 18 17 17 18 19 19 19 18 19 17 13 9 7 6 7 10 12 11
4 3 4 5 5 8 19 18 9 13 16 9 8 13 12 10 10 9 10 12 13 13 14 14 15 16 15 15 14 13 13 13 13 14 15 13 12 12 12 12 13 12 12 12 11 9 9 10 12 13 13 13 13 13 13 14 15 16 15 15 16 17 18 19 19 20 21 21 21 20 19 18 19 18 18 18 18 18 16 12 8 7 7 9 12 13 13
5 5 8 10 8 12 24 24 19 24 26 16 10 12 13 13 14 13 12 14 14 14 14 15 16 17 16 16 16 15 15 15 14 15 16 14 13 12 12 14 14 13 13 12 11 10 11 13 14 15 13 12 12 14 15 15 16 16 16 15 16 17 18 19 19 20 21 21 21 21 20 19 19 18 17 17 17 17 16 12 9 9 10 12 13 14 14
5 5 8 10 8 11 23 28 23 21 23 20 15 14 14 14 15 15 15 15 15 14 14 15 16 16 16 16 17 18 17 17 16 16 16 15 14 13 13 14 14 14 13 12 12 13 14 15 15 15 13 13 13 14 15 16 16 16 15 15 15 16 17 18 18 19 20 21 22 22 21 21 20 19 17 17 16 16 15 13 11 11 12 13 14 15 15
3 5 7 9 11 12 19 26 23 16 17 21 22 19 18 16 15 16 16 15 15 15 15 14 14 15 15 15 16 17 17 18 18 18 18 17 15 15 16 15 15 15 14 14 14 14 15 16 17 15 13 13 14 14 14 15 15 14 14 14 14 16 16 16 17 19 20 21 22 22 22 22 22 20 18 17 16 16 15 14 13 12 13 14 15 16 16
4 5 8 9 12 11 13 22 24 17 14 18 21 21 20 20 18 18 17 15 16 17 17 16 16 16 16 16 17 17 18 18 18 19 19 18 17 18 18 17 16 16 16 15 15 15 16 19 19 15 12 13 14 15 14 13 13 13 14 14 14 15 15 16 17 18 20 22 23 23 24 24 23 22 19 17 17 16 15 14 14 14 14 15 15 16 17
2 6 6 4 5 6 7 14 18 14 10 11 12 14 17 18 18 18 17 16 17 18 17 17 17 18 18 19 20 20 20 19 19 19 20 19 19 20 20 19 18 18 17 16 15 16 18 19 18 14 13 14 15 14 12 11 11 12 13 13 14 15 15 15 16 17 18 20 22 23 25 25 24 23 21 19 18 16 15 14 14 14 14 15 16 17 18
3 5 3 1 2 3 4 8 10 8 6 4 4 5 7 9 11 13 13 14 16 16 16 16 16 17 18 19 20 21 21 20 20 21 21 20 21 21 21 21 20 18 17 17 17 17 18 18 15 14 14 15 14 12 11 12 13 15 15 15 15 15 15 15 15 16 17 18 19 21 24 25 25 24 22 20 19 18 16 15 14 15 15 15 17 19 20
5 6 5 2 1 2 3 5 6 6 5 5 5 5 5 6 8 9 11 13 15 16 17 16 17 17 17 16 18 21 22 22 21 21 21 21 22 22 23 23 21 20 19 18 17 17 17 17 15 15 15 14 15 14 15 15 16 15 14 14 14 14 15 16 16 16 17 18 18 19 21 23 25 25 24 22 20 19 18 17 16 15 15 16 17 19 20
7 10 10 7 6 7 7 8 9 10 10 11 11 11 11 12 12 12 14 16 17 19 20 19 19 19 18 17 17 18 19 21 21 22 23 23 23 23 24 24 23 22 20 17 16 17 17 16 15 14 15 16 17 15 13 12 11 10 10 12 13 14 14 16 17 17 17 18 18 17 18 20 24 25 25 24 23 21 20 19 18 17 16 17 18 19 19
12 15 15 14 14 14 12 12 13 14 14 14 14 13 13 13 14 15 17 17 17 18 20 20 19 19 20 19 18 17 17 18 19 20 23 25 25 24 25 25 24 22 19 17 17 16 16 15 14 15 17 18 15 11 8 8 8 9 11 12 13 14 14 16 17 17 17 17 17 16 16 17 20 23 25 26 25 23 21 21 20 19 18 18 18 18 18
19 16 15 16 18 14 11 11 13 14 15 15 15 15 15 15 16 17 18 18 17 16 17 18 19 19 21 22 21 20 20 21 19 18 20 23 25 26 25 25 23 21 18 16 16 14 14 14 14 16 19 17 10 6 7 9 10 10 11 12 14 15 15 16 16 16 15 15 15 15 15 16 17 20 23 25 26 25 24 23 22 21 21 20 19 18 18
19 14 11 13 15 13 13 14 15 16 16 16 17 19 19 20 20 19 19 20 20 18 17 18 18 20 22 23 22 20 19 18 18 18 18 20 23 25 26 25 22 19 17 16 14 13 14 14 16 17 16 11 7 7 10 11 11 12 12 12 13 15 16 16 15 14 14 14 15 15 15 15 16 18 20 22 24 26 26 25 25 25 24 22 21 21 19
21 16 13 13 14 15 16 16 16 17 17 17 19 20 20 20 21 21 22 22 22 21 22 22 22 21 20 21 21 21 20 18 18 19 19 19 20 23 25 24 20 18 17 15 13 13 14 15 16 16 12 9 9 11 12 11 11 12 12 13 15 17 18 17 15 14 14 14 14 15 15 15 16 17 17 18 20 23 25 26 27 26 25 24 22 21 20
28 25 23 21 20 20 19 19 18 18 19 19 19 19 19 19 19 21 23 22 22 22 23 23 23 23 21 20 20 20 21 20 20 20 20 19 18 20 24 23 20 18 17 14 13 14 15 15 16 16 14 12 13 13 12 13 14 16 16 16 17 17 18 18 17 15 14 14 14 14 15 15 16 17 17 17 18 20 22 25 26 25 25 24 23 23 23
30 31 31 29 24 20 19 20 20 20 21 21 19 17 16 15 15 18 20 21 22 24 23 21 21 20 20 21 21 21 21 21 22 22 22 22 21 21 23 22 19 18 16 14 14 15 15 15 16 17 15 14 14 14 15 16 18 17 16 15 14 14 16 17 16 14 13 12 13 14 15 15 16 16 17 18 18 19 21 23 24 25 25 25 25 26 25
24 25 26 26 24 23 23 23 22 20 19 17 16 15 14 13 14 15 16 17 18 20 21 22 22 21 20 21 21 21 21 22 23 22 22 23 24 23 23 21 21 20 17 15 14 13 13 15 16 16 15 15 15 17 17 17 17 16 15 15 14 15 16 15 13 13 13 14 15 16 17 17 17 17 17 18 19 20 21 23 25 27 27 27 27 26 24
24 25 24 25 26 26 26 25 23 20 17 15 15 15 14 14 14 14 14 14 15 15 16 18 20 22 21 21 21 22 22 22 23 23 24 24 25 24 25 24 22 20 18 15 13 12 13 14 16 16 15 15 16 17 17 16 15 15 15 16 16 16 17 15 13 13 14 15 17 17 16 16 16 16 16 17 18 19 21 23 25 26 26 27 27 25 23
23 23 23 25 26 26 25 24 22 18 15 14 14 14 14 15 16 17 17 17 16 16 16 16 17 19 19 20 21 24 25 24 24 24 25 25 25 25 27 26 23 20 17 15 13 12 13 15 16 16 15 15 16 16 16 17 16 16 16 17 17 17 18 16 14 13 14 14 15 15 15 15 16 16 16 16 16 17 19 21 22 23 25 26 27 25 23
25 25 26 27 25 23 23 21 18 16 14 13 13 15 16 16 17 17 17 17 18 18 18 18 19 19 20 20 21 23 24 26 26 25 25 25 25 26 27 26 22 19 17 15 14 13 13 14 15 16 15 15 16 16 17 18 18 18 18 19 18 18 17 16 14 15 16 15 15 16 17 17 17 17 17 17 17 17 18 20 21 22 23 24 25 24 23
33 31 28 25 22 19 18 16 13 12 11 11 12 14 15 15 14 15 16 17 19 19 19 19 19 20 21 22 22 22 23 25 26 25 25 25 25 27 28 26 22 21 19 17 16 16 15 14 15 16 17 17 16 17 18 19 19 20 20 20 19 18 17 15 15 16 17 16 16 17 18 17 17 16 16 17 17 17 18 19 20 22 23 23 22 22 22
33 28 22 18 16 13 10 8 8 8 9 11 12 13 13 13 14 16 19 21 21 20 19 19 20 21 21 21 22 22 22 23 24 25 26 25 25 28 30 28 25 23 20 18 18 17 16 16 17 18 19 18 17 18 18 19 20 21 20 20 19 18 16 15 15 16 17 17 18 18 19 19 18 17 16 16 17 17 18 19 20 21 22 22 21 22 22
25 20 16 14 13 11 9 8 8 9 10 10 10 10 10 11 12 14 16 18 19 20 21 21 21 21 21 21 22 23 23 23 24 25 25 26 27 30 31 29 25 23 21 20 19 18 17 17 18 19 19 19 18 17 18 18 19 19 19 19 18 17 16 16 16 17 18 18 19 20 20 19 18 17 17 17 17 18 18 19 20 20 21 21 21 21 22
18 15 14 12 10 8 6 5 4 3 3 4 6 7 8 10 11 12 13 14 15 17 18 19 20 21 21 21 22 22 22 22 23 23 25 26 27 30 31 29 26 25 23 22 20 18 17 17 17 18 19 19 18 18 18 17 17 17 18 18 17 17 17 18 18 19 19 19 19 21 20 19 18 18 17 17 18 20 21 21 21 21 20 20 21 22 22
15 13 11 9 8 7 5 4 2 3 3 4 5 6 8 10 11 13 14 14 14 15 16 17 18 19 20 20 20 21 21 21 21 21 24 25 27 31 32 30 27 26 24 22 19 17 17 18 17 18 19 18 18 18 17 17 17 17 17 17 17 18 19 19 19 19 19 19 20 21 20 19 18 17 18 19 21 22 23 23 22 21 20 20 21 23 24
6 8 8 8 7 7 6 4 3 2 2 4 6 7 9 11 12 14 15 16 16 17 18 18 19 21 21 22 22 23 23 23 21 21 21 22 25 30 30 28 27 25 23 20 17 17 18 18 17 18 19 19 18 19 18 17 17 17 16 16 17 19 20 20 19 19 20 21 21 21 19 18 18 17 18 21 23 24 24 23 21 20 20 20 21 22 23
7 6 4 5 5 4 3 2 0 2 4 6 9 10 10 12 13 14 15 16 17 18 19 20 21 22 22 22 23 25 25 24 22 21 20 21 24 28 29 29 28 25 22 18 17 19 19 17 16 18 19 19 19 19 19 17 17 16 16 16 17 18 19 19 19 20 21 22 21 20 18 17 17 18 20 22 23 23 23 21 20 19 19 19 20 21 21
5 5 5 5 4 3 3 3 4 7 8 10 12 13 13 14 14 15 16 16 17 19 20 21 21 21 22 22 23 24 25 25 24 22 22 22 24 27 30 30 28 24 20 18 19 20 19 17 17 18 18 17 17 17 17 16 16 16 16 16 16 17 19 20 21 22 22 21 20 18 17 16 17 19 21 22 22 21 19 19 18 18 18 18 19 19 18
4 4 5 6 5 5 6 7 8 10 11 12 14 15 15 16 16 18 19 19 19 20 21 21 21 22 23 23 24 25 25 25 25 25 26 25 24 27 30 29 26 22 21 21 21 21 20 19 18 18 17 17 17 17 17 16 16 16 16 16 17 19 21 22 22 22 22 20 18 16 15 16 17 20 21 21 21 19 18 18 19 18 18 18 18 17 15
4 4 5 6 6 7 8 10 11 13 13 15 17 18 18 19 20 21 21 21 21 21 22 23 24 24 25 26 27 28 27 26 25 26 27 27 26 28 30 28 23 20 20 21 22 21 19 18 18 17 16 17 17 17 17 16 15 15 16 17 19 21 21 21 21 21 20 18 16 15 15 16 18 20 21 20 19 19 19 20 20 19 18 17 17 16 16
8 5 5 7 8 9 11 12 13 13 14 16 18 19 20 22 22 21 21 22 22 22 22 24 25 25 25 26 27 28 27 26 25 26 28 30 29 28 27 24 21 20 21 23 23 21 20 19 18 17 17 17 17 16 15 14 14 16 17 19 19 20 19 19 19 19 18 16 15 14 15 16 18 19 20 19 19 19 20 20 19 18 17 18 18 18 18
6 6 7 9 12 12 12 12 12 12 13 16 17 19 21 22 23 22 23 24 25 25 25 25 26 27 27 26 26 26 25 24 24 25 26 26 26 25 24 22 21 21 23 26 26 24 22 21 18 16 16 16 15 15 14 14 15 17 18 18 18 17 17 17 17 17 16 15 14 14 15 16 17 18 19 19 19 19 19 18 19 18 17 17 18 19 20
9 9 11 13 14 12 11 10 10 11 13 16 18 20 22 22 22 22 23 24 25 25 25 25 26 26 27 27 27 27 25 23 22 22 22 21 22 24 26 26 24 23 23 25 25 22 19 17 15 14 15 15 15 14 14 15 16 17 16 15 14 14 15 15 16 16 16 15 14 15 15 16 17 18 18 19 18 18 18 18 20 20 19 18 19 19 20
12 12 12 13 12 11 9 9 9 11 13 16 19 21 22 22 21 22 22 22 23 23 23 24 24 24 24 24 24 24 24 23 22 21 21 21 22 23 23 24 24 23 22 21 19 17 15 15 15 15 16 16 15 14 14 15 16 15 13 12 12 13 13 13 13 14 15 15 16 16 17 17 17 17 17 17 17 17 18 19 21 21 21 21 22 22 22
12 12 12 13 13 13 12 12 12 14 16 18 20 21 21 20 20 20 20 20 20 20 20 21 21 21 21 22 21 21 22 22 22 22 22 23 23 23 21 20 21 23 25 25 21 16 15 16 17 18 17 15 14 13 14 15 14 13 12 11 12 13 12 10 10 11 13 14 16 17 17 17 16 16 17 17 17 17 19 21 22 22 23 23 24 24 24
12 13 14 16 16 16 15 15 16 17 19 19 19 18 18 18 18 18 18 18 20 21 21 22 21 20 20 21 22 22 22 22 23 23 23 24 25 26 26 25 26 27 28 25 21 18 17 19 19 17 15 13 12 13 13 12 12 12 12 13 13 12 11 10 10 11 12 13 14 15 16 16 16 16 17 17 18 19 20 21 22 23 24 25 25 25 24
15 16 17 17 16 16 16 17 19 19 19 18 17 18 19 19 19 19 19 19 20 21 22 23 23 22 21 22 22 22 22 22 23 23 24 25 26 27 26 25 25 27 28 26 21 18 18 18 17 14 13 12 12 12 11 11 11 12 13 13 12 12 11 11 12 13 13 14 15 16 16 16 16 17 17 18 19 20 21 21 21 23 24 25 25 23 21
16 17 17 17 18 18 19 20 21 20 19 19 20 21 21 20 20 21 21 21 21 22 23 25 27 27 27 25 22 21 22 23 23 22 23 24 26 27 26 25 24 23 23 22 22 21 19 16 15 14 13 13 12 11 11 12 13 14 14 14 13 13 12 13 14 14 15 16 16 16 16 15 15 16 16 17 18 19 20 20 21 23 24 24 24 21 18
Wind_Direction
274 222 211 203 161 167 180 174 194 213 181 146 152 199 199 147 135 229 224 190 211 250 263 260 259 255 247 247 218 183 181 175 167 147 136 151 165 172 179 199 259 276 270 261 253 256 281 305 311 314 315 312 313 315 315 303 292 289 278 263 261 262 263 266 275 286 287 283 285 284 282 283 288 299 311 317 315 311 310 311 314 316 315 312 308 302 300
305 279 253 223 183 172 194 202 209 202 185 180 183 205 190 158 179 215 196 202 239 247 238 245 270 255 204 168 140 158 173 172 166 156 150 155 166 176 183 191 221 242 243 245 246 257 290 309 313 315 316 319 323 323 326 324 308 299 293 273 273 279 278 277 285 289 282 280 279 278 277 281 292 305 311 309 302 298 300 305 309 313 313 310 305 301 299
308 298 311 271 210 187 215 257 286 147 151 169 182 188 167 154 216 224 159 221 277 259 225 236 260 203 174 154 150 165 171 176 180 178 178 176 177 187 191 183 188 204 217 226 237 260 301 313 311 315 316 318 328 328 326 327 321 313 309 293 288 290 285 283 288 283 274 274 277 279 282 287 296 304 303 295 292 293 300 309 313 314 311 305 303 303 301
291 290 333 306 253 101 329 299 297 228 159 161 194 199 181 169 175 160 110 276 272 251 229 237 233 197 183 173 174 177 179 188 195 197 193 190 195 198 196 193 192 196 206 217 240 275 307 312 303 311 319 321 330 331 319 312 309 309 308 295 285 283 281 283 282 274 270 275 283 286 285 288 295 298 294 289 290 297 306 314 318 317 309 301 300 300 297
281 285 336 334 43 52 328 282 241 203 193 195 216 237 222 187 153 140 171 222 234 229 221 232 222 202 203 209 196 191 198 201 203 205 198 195 204 198 190 199 199 202 220 240 273 293 304 307 305 313 318 318 327 333 324 308 302 307 308 295 282 280 284 289 288 283 281 285 289 286 284 288 294 293 290 289 294 303 309 312 317 320 315 309 311 307 299
275 288 342 18 63 135 254 252 205 185 190 193 197 215 219 200 175 163 202 229 242 238 215 214 230 229 222 221 210 205 219 213 201 195 191 200 207 199 192 206 217 234 251 264 279 292 301 304 304 308 308 309 319 325 322 311 300 299 299 292 286 284 285 288 289 287 288 288 286 282 285 292 294 291 289 290 293 300 305 308 313 321 327 326 328 325 315
242 309 17 34 237 230 247 280 274 181 174 173 189 231 233 205 207 224 235 243 245 240 234 237 251 249 222 212 215 221 234 217 200 192 194 204 209 211 224 239 242 249 259 267 278 290 300 303 303 305 306 308 313 314 314 308 293 284 288 289 285 282 280 282 283 283 287 290 287 286 291 295 292 287 286 288 293 298 302 304 311 321 326 323 327 333 328
216 353 57 179 242 258 281 316 354 115 100 108 140 290 278 220 203 208 220 236 239 239 246 257 262 234 191 179 195 205 201 197 195 197 201 207 222 236 246 250 245 245 251 261 279 291 294 294 299 306 310 310 308 308 310 307 294 283 286 290 290 288 284 285 287 286 288 291 291 292 295 295 290 285 284 290 296 298 300 304 311 319 318 314 321 332 334
171 174 213 243 295 306 306 302 224 163 162 156 146 222 272 240 202 197 206 232 238 238 248 251 218 179 165 136 150 168 169 180 193 203 209 226 255 252 249 252 248 247 248 251 268 288 290 287 291 301 312 310 303 302 303 302 299 294 291 292 292 291 291 291 293 292 291 293 295 295 296 296 292 288 288 294 297 298 301 306 310 313 312 308 311 318 323
117 116 290 309 313 291 270 251 249 239 213 182 139 118 285 269 222 207 204 216 230 229 226 208 180 166 165 319 221 185 182 195 208 211 219 247 265 253 251 253 249 246 249 251 263 280 282 282 288 295 303 303 298 297 296 294 294 293 293 293 290 288 288 289 293 296 296 295 294 293 295 297 296 293 293 297 299 298 300 303 304 303 301 300 303 305 306
121 121 208 227 223 252 248 248 267 261 179 153 108 54 292 275 235 212 204 212 227 216 194 183 169 145 191 275 242 207 198 209 219 219 228 251 266 261 259 258 254 254 256 256 260 267 268 274 288 297 300 296 290 291 294 293 289 286 289 294 294 289 285 285 289 295 299 298 295 293 296 299 298 297 297 299 302 302 299 298 298 297 294 295 295 293 294
190 145 194 231 240 245 245 252 253 182 147 126 84 359 266 248 233 211 202 206 212 197 181 176 165 160 202 252 260 225 211 220 228 227 233 254 270 269 261 251 249 253 255 252 252 256 262 273 289 296 296 293 288 290 295 293 288 287 290 294 294 291 286 285 287 292 297 300 299 295 296 299 300 299 300 301 303 303 299 295 292 290 291 292 291 291 292
190 174 214 267 267 242 251 250 195 160 134 102 114 227 238 230 226 210 199 198 194 185 182 185 193 216 236 253 253 220 215 226 227 226 232 242 258 264 255 243 244 252 254 248 245 250 264 277 283 285 286 288 289 292 294 291 288 291 294 293 290 289 287 286 286 288 292 297 301 299 295 296 299 300 302 303 303 304 302 296 287 284 287 290 292 298 300
180 181 210 274 284 257 235 200 171 158 142 203 220 208 205 197 188 179 183 187 187 191 201 211 227 244 248 239 227 217 217 220 218 220 225 230 249 262 251 243 250 257 251 240 238 248 264 274 277 277 279 283 287 289 290 289 290 293 293 290 288 286 285 285 285 287 289 293 299 300 296 294 297 301 304 304 304 306 306 299 289 285 289 296 302 307 308
156 154 166 221 286 258 175 144 139 165 186 210 194 171 158 170 171 167 182 197 206 216 225 234 243 248 241 231 231 226 216 214 215 217 221 231 257 268 256 251 258 259 249 243 246 255 265 273 281 287 287 283 283 285 287 290 294 295 292 288 286 284 284 283 283 284 286 289 295 298 297 295 296 301 305 306 304 306 308 304 293 287 296 312 313 311 307
142 151 195 209 240 200 166 158 177 206 203 193 166 168 176 186 193 206 222 229 232 234 239 246 247 243 238 236 234 225 216 217 222 225 231 245 262 266 262 261 263 258 251 250 252 258 270 284 295 305 302 288 280 283 288 292 294 295 294 291 286 283 283 283 282 282 283 287 292 294 294 294 295 299 304 305 302 305 309 305 291 282 297 312 312 307 301
175 180 211 224 230 191 180 190 212 212 205 196 179 185 196 200 208 224 233 232 232 235 243 250 248 243 241 239 235 231 231 236 242 244 246 252 259 264 264 262 259 252 246 247 252 265 284 299 309 313 309 294 285 287 291 293 292 291 293 292 288 285 284 283 282 282 282 284 288 291 291 290 291 296 302 303 301 304 308 304 287 280 293 306 307 300 293
232 248 243 235 236 211 200 208 221 221 210 204 201 210 220 221 226 233 232 231 234 235 236 241 243 243 242 240 240 241 243 248 253 251 248 248 252 256 257 257 253 244 240 247 260 277 293 306 313 312 305 297 294 293 295 297 295 290 288 289 289 290 289 285 282 280 280 281 285 287 287 287 289 293 300 303 302 303 305 299 284 278 286 298 303 300 293
194 255 253 224 216 221 217 214 216 214 208 208 213 222 233 242 247 243 238 239 240 236 234 235 236 238 237 236 240 243 246 250 252 248 246 247 248 253 258 256 247 241 244 256 270 283 297 307 311 308 298 292 293 293 296 300 299 294 289 287 289 292 292 290 285 280 278 280 283 284 284 285 286 290 296 302 301 301 302 297 285 280 283 289 295 299 297
173 243 258 228 216 229 229 216 212 211 212 216 222 230 241 250 253 247 245 243 236 233 235 238 241 244 244 244 248 249 249 251 250 249 251 251 252 257 259 252 244 244 250 261 273 285 295 303 307 301 289 287 292 294 294 295 294 294 294 291 290 292 293 293 290 284 281 280 280 281 282 283 284 286 292 298 299 299 300 296 289 285 286 287 290 299 303
260 278 280 247 227 249 240 215 213 220 229 232 238 243 247 251 252 249 248 246 242 241 245 249 254 257 256 257 258 256 253 253 252 254 257 257 257 258 254 247 245 248 253 262 274 284 292 300 304 298 287 291 296 296 292 288 286 291 294 292 290 291 293 294 294 291 287 283 279 278 279 280 282 285 288 293 296 296 296 295 291 288 287 288 290 295 300
269 253 243 200 202 239 216 190 189 200 215 232 252 250 247 252 256 255 252 248 246 246 248 253 259 262 264 265 262 258 256 256 256 259 260 257 255 254 249 245 245 246 252 262 271 280 290 299 302 294 288 293 296 291 283 283 285 288 287 286 287 290 293 295 295 294 293 289 284 280 278 277 279 281 284 290 293 292 291 291 290 288 288 289 289 291 294
227 247 258 247 191 206 193 176 186 208 236 256 260 258 260 262 260 260 258 254 252 252 254 258 262 265 269 271 268 264 263 261 260 262 261 258 255 252 247 243 242 245 252 259 266 277 291 299 296 287 286 293 297 291 285 285 288 287 285 283 286 290 294 297 299 298 296 294 291 285 280 278 277 278 280 285 288 288 288 287 286 287 288 288 289 290 293
234 264 265 242 232 252 267 270 268 268 271 273 273 276 277 273 272 273 271 270 269 267 264 263 264 266 270 271 269 268 268 267 268 268 265 260 254 251 247 243 244 247 250 253 264 281 294 298 291 283 286 295 298 293 288 287 287 287 286 287 289 292 294 297 301 303 299 296 294 291 285 280 277 277 279 281 282 284 284 284 285 285 284 285 287 291 293
262 271 268 257 256 262 269 271 270 270 271 274 278 280 277 276 279 280 279 281 281 275 269 266 265 268 271 271 269 268 271 273 276 276 272 263 254 247 243 241 242 244 246 254 270 284 295 296 288 285 292 297 295 288 287 289 286 285 286 287 289 293 296 299 301 303 301 298 297 296 294 287 281 279 279 280 281 281 281 282 284 283 282 283 285 289 292
279 283 275 260 254 254 253 252 257 267 274 278 281 282 281 283 286 284 281 283 283 279 276 276 277 277 277 274 273 277 282 282 279 277 273 265 254 246 242 241 241 242 248 261 275 286 295 293 287 289 294 293 283 274 283 287 284 285 289 291 292 295 300 302 302 302 303 303 302 302 303 297 289 283 281 281 282 281 278 279 281 281 282 282 280 283 293
279 283 270 250 244 246 249 255 266 278 284 284 284 283 282 283 283 279 275 276 278 277 276 279 282 282 278 274 272 276 282 285 282 278 274 268 260 253 247 242 239 241 252 266 278 288 293 288 285 290 293 284 269 276 280 276 273 276 280 284 289 295 301 304 303 301 302 303 304 305 306 306 300 293 288 285 282 279 277 279 281 282 283 282 277 278 290
264 264 256 248 255 268 274 278 284 286 282 280 279 277 275 277 277 273 269 270 272 273 276 280 284 283 277 272 268 267 268 272 276 276 275 274 269 256 244 238 237 246 259 268 277 285 285 279 280 288 286 271 271 277 271 265 268 271 273 280 287 295 302 304 302 299 299 301 303 304 306 308 307 303 297 291 285 281 279 281 282 282 284 283 276 272 278
260 261 261 262 269 278 280 281 281 280 280 283 281 276 274 278 280 275 270 269 272 274 277 281 285 283 279 273 268 266 266 268 270 270 269 271 268 252 240 238 244 252 256 261 271 278 274 270 278 285 280 270 270 267 262 269 279 281 283 286 289 296 303 303 297 295 297 300 302 304 304 306 306 305 302 297 290 283 280 281 281 282 284 283 275 270 272
259 260 263 267 272 275 275 277 280 283 286 285 281 276 276 281 284 281 278 278 280 280 278 276 276 278 280 278 274 273 275 278 280 276 270 267 263 250 239 237 239 238 240 251 264 268 267 270 280 285 280 270 265 265 270 280 284 285 288 289 291 301 308 302 291 289 294 297 299 301 302 303 304 304 302 299 293 286 282 282 282 283 285 283 277 273 273
262 261 263 266 269 272 275 278 281 285 285 280 275 275 278 282 288 291 291 291 290 287 283 276 270 270 274 276 276 278 281 283 283 279 272 268 261 248 237 234 234 234 240 253 260 263 269 278 284 285 280 273 270 274 280 283 282 283 288 289 291 303 311 304 289 285 291 296 298 300 300 300 301 301 298 296 294 292 289 287 285 285 286 283 277 274 272
268 267 267 266 267 268 270 272 275 278 278 276 274 277 282 286 292 299 303 303 301 298 295 286 276 272 275 276 279 284 286 285 282 277 271 268 262 248 236 234 237 240 245 253 260 267 274 279 281 280 276 274 276 277 278 278 277 280 287 290 291 298 307 308 300 296 300 302 302 303 304 303 303 303 300 297 296 295 293 292 290 289 289 287 282 279 276
266 263 262 264 265 262 261 265 270 273 274 273 276 281 286 290 294 299 303 305 305 304 304 299 291 286 286 285 286 290 291 289 285 276 268 266 263 250 237 233 235 238 243 252 261 268 271 274 277 276 273 274 277 275 272 274 277 280 286 289 288 292 301 307 307 308 312 313 311 312 310 304 302 302 302 301 301 299 296 294 293 292 292 291 289 289 286
270 270 270 270 266 261 261 265 267 267 271 277 283 290 293 294 297 300 301 302 303 303 303 302 299 296 295 293 292 292 291 289 286 278 269 266 262 249 236 232 234 238 245 252 259 265 267 269 273 273 273 276 278 272 269 272 275 278 282 284 283 288 298 304 305 307 310 312 317 320 316 308 301 299 299 300 302 300 298 297 296 294 293 292 291 291 288
267 271 272 269 263 259 262 264 262 264 273 284 293 298 296 293 293 296 297 298 300 300 301 302 300 298 298 296 295 295 294 291 287 279 270 267 261 248 236 232 234 239 243 250 258 265 268 268 270 274 278 279 277 273 272 273 273 275 277 277 278 286 296 299 298 301 303 304 311 319 320 314 307 302 300 301 302 301 299 297 295 293 293 292 292 290 286
263 263 261 256 251 245 240 240 248 261 274 286 296 300 297 294 297 299 298 298 297 296 297 299 298 298 298 298 298 298 298 297 292 280 270 266 261 247 236 232 235 238 239 245 253 260 262 263 269 275 277 275 272 270 268 268 270 271 271 270 275 285 293 293 293 294 295 297 304 314 318 315 308 303 302 303 305 306 304 300 296 293 290 290 290 290 286
252 249 247 243 234 225 223 238 259 268 276 288 301 310 315 319 320 316 310 306 303 299 296 296 296 295 296 298 301 300 298 299 299 289 278 271 260 244 233 230 232 233 235 243 253 257 259 263 270 273 271 270 269 266 264 264 266 266 265 269 277 286 290 289 287 287 288 292 299 308 314 313 307 302 301 302 305 309 309 306 302 297 291 287 287 286 285
242 243 245 237 221 214 227 249 265 278 313 342 353 357 354 347 338 332 329 328 324 319 313 307 302 298 295 296 300 301 300 300 300 295 288 278 259 238 229 228 230 233 241 253 259 260 263 268 269 267 265 265 264 263 263 263 262 261 264 272 281 287 288 284 281 281 285 292 300 306 311 310 306 303 303 305 307 309 309 308 306 302 295 289 285 282 281
239 233 226 211 194 190 193 181 142 96 61 34 12 356 346 340 336 334 332 330 329 329 330 328 321 313 304 298 299 302 305 306 304 301 297 283 257 237 231 233 237 242 252 259 259 259 265 270 267 262 261 264 266 264 263 262 261 263 268 274 279 282 281 279 278 280 286 293 301 306 308 306 303 303 304 306 307 308 308 306 306 303 297 290 286 285 284
183 174 172 168 162 162 160 148 123 81 40 11 356 347 339 333 331 331 329 327 324 321 322 325 327 323 317 310 305 304 306 308 307 305 299 280 253 238 234 237 242 246 248 249 254 264 270 271 268 264 263 267 270 269 266 263 261 262 266 270 273 275 274 274 276 281 288 295 300 303 303 300 299 300 303 305 306 308 307 306 305 304 298 291 286 286 286
86 100 124 134 131 130 128 132 306 322 327 328 332 335 334 331 330 329 327 328 328 326 324 324 323 322 321 318 311 305 302 302 303 304 296 275 252 240 237 240 243 242 241 246 261 269 267 264 262 261 262 264 266 266 263 259 258 260 264 268 269 270 270 272 277 283 289 294 298 298 297 296 298 300 303 306 308 309 309 308 307 306 303 294 287 286 286
48 40 39 53 68 56 24 357 332 329 330 328 326 325 324 324 327 327 324 323 327 329 328 325 321 319 319 320 317 310 301 296 296 297 294 283 266 254 250 247 243 238 241 254 261 258 254 255 255 254 256 259 259 256 253 253 257 263 267 268 267 267 270 276 282 286 290 293 294 293 292 293 297 301 304 307 308 311 314 314 312 309 306 299 292 292 291
351 354 1 12 14 5 360 353 342 338 339 336 330 325 320 318 319 321 321 323 327 330 328 325 321 318 316 315 316 316 310 303 296 292 292 290 280 265 255 250 245 243 252 259 254 245 245 249 248 247 251 254 251 246 246 251 259 266 268 269 270 274 278 282 284 286 289 290 288 285 286 291 295 299 302 305 307 311 317 321 319 314 309 302 296 295 296
322 349 357 358 354 347 344 343 342 342 340 334 327 323 322 320 320 320 322 325 329 330 328 324 321 318 315 312 310 310 309 307 302 294 290 287 277 259 248 246 250 254 255 251 243 240 242 245 246 248 252 248 242 241 245 252 261 268 272 274 277 278 280 282 282 284 286 286 281 278 282 289 294 297 300 304 306 311 317 321 319 314 308 303 298 296 296
271 301 335 343 340 337 337 337 336 333 325 319 316 316 318 321 324 326 328 329 329 329 327 324 322 321 319 316 312 308 306 305 303 298 291 284 273 257 246 247 258 264 258 248 244 243 244 244 247 251 249 242 237 241 248 258 268 275 278 279 280 279 279 280 282 283 283 280 275 277 286 293 295 297 299 302 306 311 317 322 322 316 308 302 298 295 294
269 292 316 324 324 325 325 323 320 317 314 313 313 314 315 319 324 326 325 324 323 323 323 322 322 322 321 319 317 316 314 311 307 302 292 279 268 259 254 254 259 261 258 253 250 245 241 238 239 240 238 236 238 245 255 267 277 282 282 280 279 279 280 281 280 278 276 274 275 282 291 295 297 298 298 300 305 310 315 322 328 326 318 308 302 297 293
300 294 295 302 305 307 308 309 311 313 314 314 313 312 312 316 320 321 319 319 320 321 321 320 319 320 320 319 318 318 318 316 310 299 284 267 257 257 259 257 255 255 255 251 245 236 230 228 230 232 235 238 243 252 264 277 283 283 280 278 279 281 282 281 277 274 273 275 281 287 291 295 298 297 296 298 303 306 310 317 325 327 325 321 316 309 301
294 293 297 301 302 301 306 313 315 313 311 310 310 310 312 314 317 318 318 319 319 319 319 319 320 321 322 322 320 319 319 315 307 297 286 274 264 261 259 257 254 249 238 225 217 216 220 225 229 232 235 239 246 258 274 284 284 279 274 276 283 286 284 283 285 284 281 282 284 287 291 295 298 296 295 297 301 303 307 314 320 324 325 324 321 316 310
296 300 304 307 307 307 308 310 310 309 310 310 310 311 313 315 315 315 317 318 319 318 319 322 324 326 327 325 323 321 320 315 308 301 295 286 276 270 267 262 253 239 220 208 207 216 225 226 229 232 235 241 253 270 282 284 279 272 272 280 286 285 284 289 299 301 297 294 293 293 295 296 294 292 293 298 302 305 309 314 319 324 326 324 320 316 312
308 308 308 309 311 311 310 309 310 312 314 314 314 315 317 317 316 317 319 319 317 317 319 320 320 323 326 326 323 321 320 317 310 303 297 290 284 281 277 270 261 250 240 234 235 237 230 224 226 231 237 247 264 276 277 273 269 270 274 279 280 278 280 290 301 305 306 307 307 303 299 295 290 288 293 299 304 307 311 314 318 323 326 323 320 316 312
309 309 310 311 310 308 307 307 309 311 311 310 310 313 314 312 310 312 316 317 315 315 315 315 315 316 318 321 321 320 319 317 313 306 300 295 291 287 281 274 267 261 255 248 238 226 218 219 226 235 246 259 269 270 265 262 265 271 273 273 273 274 279 287 294 297 302 307 309 306 300 293 287 287 292 298 303 306 309 313 318 323 323 321 320 317 311
306 307 309 310 308 307 307 307 308 307 305 304 305 307 308 305 303 304 309 313 313 313 314 315 315 315 314 314 313 313 313 313 311 308 303 297 291 285 280 277 271 261 247 230 214 207 210 220 233 244 253 261 263 262 261 265 271 274 274 273 274 277 281 286 289 292 296 301 304 303 298 293 290 290 294 298 302 306 309 313 320 323 322 320 320 317 310